STARLINK-36690, 67913

Orbit data source: Space-Track

STARLINK-36690, 67913 is a payload satellite owned by SpaceX/Seattle (US) in LEO that was launched on Sun, 22 Feb 2026 UTC via an FALCON 9 launch vehicle from the Air Force Eastern Test Range (AFETR). Payload-class satellites include a variety of spacecraft equipped with specific instruments for various scientific and technological missions. These include communications satellites like Starlink; space stations such as the ISS; scientific satellites like the Hubble; Earth observation satellites from companies like Planet Labs, Umbra, and HawkEye 360; GPS; miniature CubeSats for education and research; and military/defense satellites.

Loading next visibility...
Identifier
67913, 2026-036K
Orbit
LEO
Country
Flag of USUS
Related business
Manufacturer
SpaceX/Seattle
Mission
Operational spacecraft
Bus & Motor
STARLINK V2MO, Unknown motor
Mass
575 kg wet, ~530 kg dry
Launch date (UTC)
2026-02-22 (3 weeks ago)
Launch vehicle
FALCON 9
Launch site
Air Force Eastern Test Range (AFETR)
Object type
Payload
Rocket body
Debris
Shape & HBR
Unknown
Radar Cross Section
RCS unknown

Expand to show TLE details & history
Last TLE update: 14 hours ago

TLE from 14 hours ago
0 STARLINK-36690
1 67913U 26036K   26071.79825410  .00462609  00000-0  19757-2 0  9993
2 67913  43.0008 230.6626 0018200 279.9239  79.9578 15.82949638  4161
Epoch: 2026-03-12T19:09Z
TLE epoch observation values (Epoch: 2026-03-12T19:09:29.154Z)
Latitude
-0.00006°
Longitude
132.84809°
Altitude
319.77 km
Speed
7.719 km/s
True Right ascension
15h 22m 39s
True Declination
0° 00' 00"
Sunlit
Object was in full shadow at epoch
Visualization orbit readout
Latitude
Unknown
Longitude
Unknown
Altitude
Unknown
Speed
Unknown
Apparent Right ascension
Unknown
Apparent Declination
Unknown
Sunlit
N/A
Visualization observer readout
Local Sidereal Time
13:09:37
Azimuth
Unknown
Elevation
Unknown
Doppler factor
Unknown
Orbital elements
Apogee altitude
336.294 km
Perigee altitude
311.898 km
Semi-major axis
6,702.233 km
Eccentricity
0.00182
Inclination
43.0008°
RAAN
230.6626°
Arg. of periapsis
279.9239°
True anomaly
80.16324°
Mean anomaly
79.9578°
Eccentric anomaly
80.06051°
Mean motion
3.95561 °/min
Orbital period
91.01 mins
BSTAR
0.0019757
Loading maneuver chart data...
Computing Atmospheric mass density...
Loading historical data...
Loading historical data...
Loading historical data...
Loading historical data...
Loading historical data...
Loading historical data...
Loading historical data...

Documentation

Showing up to 5 results
|